Location: Observatorio Las Palmas
(29.0667°N, 110.9333°W)
Time: 22:27:09
(UTC-07:00)

Skynet4D Del rocket - Visible Passes

Search period start: 21 August 2017 00:00
Search period end: 31 August 2017 00:00
Orbit: 763 x 1291 km, 26.9° (Epoch: 21 August)

Date Brightness Start Highest point End Pass type
(mag) Time Alt. Az. Time Alt. Az. Time Alt. Az.
21 Aug 4.2 19:28:03 10° W 19:35:33 76° S 19:41:41 12° E visible
21 Aug 4.4 21:21:35 10° W 21:27:18 50° SW 21:27:18 50° SW visible
22 Aug 4.2 20:09:39 10° W 20:16:59 68° S 20:20:23 30° ESE visible
22 Aug 5.8 22:03:25 10° W 22:06:01 22° WSW 22:06:01 22° WSW visible
23 Aug 4.3 20:51:20 10° W 20:58:17 50° SSW 20:59:06 48° S visible
24 Aug 4.4 19:39:19 10° W 19:46:56 65° SSW 19:52:12 17° ESE visible
24 Aug 5.3 21:33:17 10° W 21:37:49 29° SW 21:37:49 29° SW visible
25 Aug 4.7 20:21:04 10° W 20:28:13 46° SSW 20:30:56 31° SSE visible
25 Aug 6.5 22:16:06 10° WSW 22:16:34 11° WSW 22:16:34 11° WSW visible
26 Aug 4.7 19:08:58 10° W 19:16:49 61° SSW 19:23:44 10° ESE visible
26 Aug 5.2 21:03:09 10° W 21:09:17 29° SSW 21:09:42 29° SSW visible
27 Aug 5.0 19:50:46 10° W 19:58:04 43° SSW 20:02:52 18° SE visible
27 Aug 6.2 21:46:23 10° WSW 21:48:30 14° SW 21:48:30 14° SW visible
28 Aug 5.5 20:33:02 10° W 20:39:07 26° SSW 20:41:43 21° S visible
29 Aug 5.3 19:20:30 10° W 19:27:52 39° SSW 19:34:31 10° SE visible
29 Aug 6.2 21:16:52 10° WSW 21:20:01 13° SSW 21:20:35 13° SSW visible
30 Aug 6.0 20:02:58 10° WSW 20:08:53 23° SSW 20:13:52 12° SSE visible
